AirNav   Everest Fuels
 
 581 users online  

NH76 Mason Airfield
Mason, New Hampshire, USA

GOING TO MASON?


FAA INFORMATION EFFECTIVE 16 JUNE 2022

Location

FAA Identifier: NH76
Lat/Long: 42-43-44.3100N 071-47-03.2600W
42-43.738500N 071-47.054333W
42.7289750,-71.7842389
(estimated)
Elevation: 740 ft. / 226 m (estimated)
Variation: 16W (1995)
From city: 1 mile SW of MASON, NH
Time zone: UTC -4 (UTC -5 during Standard Time)
Zip code: 03048

Airport Operations

Airport use: Private use. Permission required prior to landing
Activation date: 03/2000
Control tower: no
ARTCC: BOSTON CENTER
FSS: BANGOR FLIGHT SERVICE STATION
Attendance: UNATNDD
Segmented circle: no

Airport Communications

WX ASOS at FIT (11 nm S): 135.175 (978-343-9121)
WX ASOS at AFN (11 nm NW): 135.875 (603-532-6195)
WX AWOS-3PT at ASH (12 nm E): 125.1 (603-578-0473)
WX ASOS at MHT (20 nm NE): 119.55 (603-621-1766)

Airport Services

Runway Information

Runway 15/33

Dimensions: 2700 x 100 ft. / 823 x 30 m
Surface: turf
RUNWAY 15  RUNWAY 33
Traffic pattern: leftleft

Airport Ownership and Management from official FAA records

Ownership: Privately-owned
Owner: MICHAEL FARREY
492 OLD ASHBY RD
MASON, NH 03048
Phone 603-878-1622
Manager: MICHAEL FARREY
492 OLD ASHBY RD
MASON, NH 03048
Phone 603-878-1622

Additional Remarks

A52-15 200 FT HILL 1 1/2 MI NW; 38 FT HILL 1/2 MI E.
FOR CD CTC BOSTON APCH AT 603-594-5551.

Instrument Procedures

There are no published instrument procedures at NH76.

Some nearby airports with instrument procedures:

KFIT - Fitchburg Municipal Airport (11 nm S)
KAFN - Jaffrey/Silver Ranch Airport (11 nm NW)
KASH - Boire Field Airport (12 nm E)
KGDM - Gardner Municipal Airport (15 nm SW)
KMHT - Manchester Boston Regional Airport (20 nm NE)
6B6 - Minute Man Air Field (20 nm SE)
 
Loc | Ops | Rwys | IFR | FBO | Links
Com | Nav | Svcs | Stats | Notes
Area around NH76 (Mason Airfield)
 
Road maps at: MapQuest Bing Google
 
Aerial photo
WARNING: Photo may not be current or correct
Aerial photo of NH76 (Mason Airfield)
Photo by Bruce Vinal, Aerial Perspectives
Photo taken 20-Oct-2010
looking northwest.

Do you have a better or more recent aerial photo of Mason Airfield that you would like to share? If so, please send us your photo.

 
Sectional chart

 
Airport distance calculator
Flying to Mason Airfield? Find the distance to fly.

From to NH76

Sunrise and sunset
Times for 27-Jun-2022
 Local
(UTC-4)
 Zulu
(UTC)
Morning civil twilight04:3708:37
Sunrise05:1209:12
Sunset20:2800:28
Evening civil twilight21:0301:03

Current date and time
Zulu (UTC)  27-Jun-2022 11:18:26
Local (UTC-4)  27-Jun-2022 07:18:26
 
METAR
KAFN 
10nm NW 
271052Z AUTO 21007G14KT 10SM CLR 21/17 A2991 RMK AO2 SLP126 T02110167
KFIT 
11nm S 
271052Z AUTO 18006G15KT 10SM FEW120 22/16 A2990 RMK AO2 SLP121 T02220156 $
KASH 
12nm E 
271056Z 15005KT 10SM SCT100 22/19 A2989 RMK AO2 SLP124 T02220189 $
KMHT 
20nm NE 
271053Z 18008KT 10SM BKN110 BKN250 23/16 A2986 RMK AO2 SLP120 T02280161 $
TAF
KMHT 
20nm NE 
270910Z 2709/2806 18008KT P6SM SCT070 BKN250 FM271200 19009KT P6SM -SHRA SCT020 OVC050 FM271500 24009KT 4SM SHRA BR SCT010 OVC020 FM272000 26007KT P6SM VCSH SCT025 BKN090 FM280000 28006KT P6SM FEW250
NOTAMs
Click for the latest NOTAMs
NOTAMs are issued by the DoD/FAA and will open in a separate window not controlled by AirNav.

 

 
 

Would you like to see your business listed on this page?

 If your business provides an interesting product or service to pilots, flight crews, aircraft, or users of the Mason Airfield, you should consider listing it here.  To start the listing process, click on the button below
 
Add a business
 

Other Pages about Mason Airfield

Update a link
 
Copyright © AirNav, LLC. All rights reserved. Privacy Policy  Contact